Météo par heure à Alicante

Ce jour, 27 Octobre, Mardi

Heure Température Précipitation Vent Pression Humidité
00:00 +13°C° 0 mm 5 m/s 764 mmHg 50%
01:00 +13°C° 0 mm 5 m/s 763 mmHg 51%
02:00 +12°C° 0 mm 5 m/s 763 mmHg 52%
03:00 +12°C° 0 mm 4 m/s 763 mmHg 53%
04:00 +12°C° 0 mm 4 m/s 763 mmHg 55%
05:00 +11°C° 0 mm 4 m/s 763 mmHg 56%
06:00 +11°C° 0 mm 3 m/s 763 mmHg 58%
07:00 +13°C° 0 mm 4 m/s 763 mmHg 52%
08:00 +14°C° 0 mm 4 m/s 763 mmHg 47%
09:00 +17°C° 0 mm 4 m/s 764 mmHg 41%
10:00 +18°C° 0 mm 4 m/s 764 mmHg 37%
11:00 +20°C° 0 mm 4 m/s 763 mmHg 33%
12:00 +21°C° 0 mm 4 m/s 763 mmHg 30%
13:00 +21°C° 0 mm 5 m/s 763 mmHg 30%
14:00 +22°C° 0 mm 5 m/s 762 mmHg 30%
15:00 +22°C° 0 mm 5 m/s 762 mmHg 30%
16:00 +20°C° 0 mm 5 m/s 762 mmHg 36%
17:00 +19°C° 0 mm 5 m/s 762 mmHg 42%
18:00 +17°C° 0 mm 4 m/s 762 mmHg 49%
19:00 +17°C° 0 mm 4 m/s 763 mmHg 49%
20:00 +17°C° 0 mm 4 m/s 763 mmHg 49%
21:00 +17°C° 0 mm 4 m/s 763 mmHg 49%
22:00 +15°C° 0 mm 4 m/s 763 mmHg 49%
23:00 +15°C° 0 mm 4 m/s 763 mmHg 50%

Demain, 28 Octobre, Mercredi

Heure Température Précipitation Vent Pression Humidité
00:00 +16°C° 0 mm 3 m/s 763 mmHg 51%
01:00 +14°C° 0 mm 3 m/s 763 mmHg 54%
02:00 +14°C° 0 mm 3 m/s 763 mmHg 56%
03:00 +14°C° 0 mm 3 m/s 763 mmHg 58%
04:00 +14°C° 0 mm 3 m/s 763 mmHg 60%
05:00 +14°C° 0 mm 3 m/s 763 mmHg 63%
06:00 +14°C° 0 mm 3 m/s 764 mmHg 65%
07:00 +16°C° 0 mm 3 m/s 764 mmHg 60%
08:00 +18°C° 0 mm 2 m/s 764 mmHg 55%
09:00 +20°C° 0 mm 2 m/s 765 mmHg 49%
10:00 +21°C° 0 mm 2 m/s 765 mmHg 47%
11:00 +23°C° 0 mm 2 m/s 765 mmHg 44%
12:00 +24°C° 0 mm 1 m/s 765 mmHg 41%
13:00 +24°C° 0 mm 2 m/s 764 mmHg 41%
14:00 +24°C° 0 mm 2 m/s 764 mmHg 42%
15:00 +24°C° 0 mm 2 m/s 764 mmHg 43%
16:00 +23°C° 0 mm 2 m/s 764 mmHg 49%
17:00 +20°C° 0 mm 2 m/s 764 mmHg 56%
18:00 +20°C° 0 mm 1 m/s 765 mmHg 62%
19:00 +19°C° 0 mm 1 m/s 765 mmHg 63%
20:00 +19°C° 0 mm 1 m/s 766 mmHg 63%
21:00 +19°C° 0 mm 1 m/s 766 mmHg 64%
22:00 +18°C° 0 mm 1 m/s 766 mmHg 66%
23:00 +18°C° 0 mm 1 m/s 766 mmHg 68%

Après-demain, 29 Octobre, Jeudi

Heure Température Précipitation Vent Pression Humidité
00:00 +16°C° 0 mm 1 m/s 766 mmHg 71%
01:00 +15°C° 0 mm 0 m/s 766 mmHg 71%
02:00 +15°C° 0 mm 0 m/s 766 mmHg 72%
03:00 +15°C° 0 mm 0 m/s 766 mmHg 73%
04:00 +16°C° 0 mm 1 m/s 766 mmHg 74%
05:00 +16°C° 0 mm 1 m/s 767 mmHg 75%
06:00 +15°C° 0 mm 1 m/s 767 mmHg 76%
07:00 +19°C° 0 mm 1 m/s 767 mmHg 68%
08:00 +20°C° 0 mm 2 m/s 768 mmHg 61%
09:00 +23°C° 0 mm 2 m/s 768 mmHg 53%
10:00 +23°C° 0 mm 2 m/s 768 mmHg 51%
11:00 +24°C° 0 mm 2 m/s 768 mmHg 49%
12:00 +25°C° 0 mm 2 m/s 768 mmHg 47%
13:00 +25°C° 0 mm 2 m/s 768 mmHg 49%
14:00 +25°C° 0 mm 2 m/s 768 mmHg 50%
15:00 +24°C° 0 mm 2 m/s 767 mmHg 52%
16:00 +23°C° 0 mm 2 m/s 768 mmHg 61%
17:00 +20°C° 0 mm 2 m/s 768 mmHg 70%
18:00 +19°C° 0 mm 1 m/s 768 mmHg 79%
19:00 +19°C° 0 mm 1 m/s 768 mmHg 81%
20:00 +18°C° 0 mm 1 m/s 768 mmHg 83%
21:00 +18°C° 0 mm 1 m/s 769 mmHg 85%
22:00 +18°C° 0 mm 1 m/s 769 mmHg 85%
23:00 +15°C° 0 mm 0 m/s 768 mmHg 85%

30 Octobre, Vendredi

Heure Température Précipitation Vent Pression Humidité
00:00 +15°C° 0 mm 0 m/s 768 mmHg 86%
01:00 +15°C° 0 mm 0 m/s 768 mmHg 85%
02:00 +14°C° 0 mm 0 m/s 768 mmHg 85%
03:00 +14°C° 0 mm 0 m/s 768 mmHg 84%
04:00 +14°C° 0 mm 0 m/s 768 mmHg 83%
05:00 +14°C° 0 mm 0 m/s 768 mmHg 82%
06:00 +13°C° 0 mm 0 m/s 768 mmHg 82%
07:00 +16°C° 0 mm 0 m/s 768 mmHg 71%
08:00 +18°C° 0 mm 0 m/s 768 mmHg 60%
09:00 +21°C° 0 mm 0 m/s 768 mmHg 49%
10:00 +24°C° 0 mm 1 m/s 768 mmHg 46%
11:00 +25°C° 0 mm 1 m/s 768 mmHg 42%
12:00 +26°C° 0 mm 2 m/s 767 mmHg 38%
13:00 +26°C° 0 mm 2 m/s 767 mmHg 40%
14:00 +26°C° 0 mm 2 m/s 767 mmHg 42%
15:00 +26°C° 0 mm 2 m/s 766 mmHg 44%
16:00 +24°C° 0 mm 2 m/s 767 mmHg 55%
17:00 +21°C° 0 mm 1 m/s 767 mmHg 66%
18:00 +19°C° 0 mm 1 m/s 767 mmHg 77%
19:00 +19°C° 0 mm 1 m/s 767 mmHg 78%
20:00 +16°C° 0 mm 0 m/s 767 mmHg 79%
21:00 +16°C° 0 mm 0 m/s 767 mmHg 80%
22:00 +16°C° 0 mm 0 m/s 767 mmHg 80%
23:00 +15°C° 0 mm 0 m/s 767 mmHg 79%

31 Octobre, Samedi

Heure Température Précipitation Vent Pression Humidité
00:00 +15°C° 0 mm 0 m/s 767 mmHg 78%
01:00 +15°C° 0 mm 0 m/s 767 mmHg 78%
02:00 +15°C° 0 mm 0 m/s 766 mmHg 77%
03:00 +14°C° 0 mm 0 m/s 766 mmHg 77%
04:00 +14°C° 0 mm 0 m/s 766 mmHg 77%
05:00 +14°C° 0 mm 0 m/s 766 mmHg 78%
06:00 +13°C° 0 mm 0 m/s 766 mmHg 78%
07:00 +16°C° 0 mm 0 m/s 766 mmHg 68%
08:00 +19°C° 0 mm 0 m/s 767 mmHg 57%
09:00 +21°C° 0 mm 0 m/s 767 mmHg 46%
10:00 +24°C° 0 mm 1 m/s 767 mmHg 44%
11:00 +25°C° 0 mm 1 m/s 767 mmHg 41%
12:00 +26°C° 0 mm 2 m/s 766 mmHg 39%
13:00 +26°C° 0 mm 2 m/s 766 mmHg 42%
14:00 +26°C° 0 mm 2 m/s 766 mmHg 45%
15:00 +26°C° 0 mm 2 m/s 766 mmHg 49%
16:00 +23°C° 0 mm 2 m/s 766 mmHg 61%
17:00 +21°C° 0 mm 1 m/s 766 mmHg 73%
18:00 +17°C° 0 mm 0 m/s 766 mmHg 84%
19:00 +17°C° 0 mm 0 m/s 766 mmHg 85%
20:00 +16°C° 0 mm 0 m/s 767 mmHg 85%
21:00 +16°C° 0 mm 0 m/s 767 mmHg 86%
22:00 +16°C° 0 mm 0 m/s 767 mmHg 85%
23:00 +15°C° 0 mm 0 m/s 767 mmHg 85%

1 Novembre, Dimanche

Heure Température Précipitation Vent Pression Humidité
00:00 +15°C° 0 mm 0 m/s 767 mmHg 84%
01:00 +15°C° 0 mm 0 m/s 766 mmHg 85%
02:00 +14°C° 0 mm 0 m/s 766 mmHg 86%
03:00 +14°C° 0 mm 0 m/s 766 mmHg 87%
04:00 +14°C° 0 mm 0 m/s 766 mmHg 87%
05:00 +13°C° 0 mm 0 m/s 766 mmHg 88%
06:00 +13°C° 0 mm 0 m/s 766 mmHg 88%
07:00 +16°C° 0 mm 0 m/s 767 mmHg 80%
08:00 +18°C° 0 mm 0 m/s 767 mmHg 73%
09:00 +20°C° 0 mm 0 m/s 767 mmHg 65%
10:00 +23°C° 0 mm 1 m/s 767 mmHg 59%
11:00 +24°C° 0 mm 1 m/s 767 mmHg 54%
12:00 +26°C° 0 mm 2 m/s 766 mmHg 48%
13:00 +25°C° 0 mm 2 m/s 766 mmHg 51%
14:00 +25°C° 0 mm 2 m/s 766 mmHg 54%
15:00 +25°C° 0 mm 2 m/s 765 mmHg 57%
16:00 +23°C° 0 mm 2 m/s 765 mmHg 67%
17:00 +21°C° 0 mm 1 m/s 765 mmHg 78%
18:00 +19°C° 0 mm 1 m/s 765 mmHg 88%
19:00 +18°C° 0 mm 1 m/s 765 mmHg 89%
20:00 +18°C° 0 mm 1 m/s 765 mmHg 90%
21:00 +15°C° 0 mm 0 m/s 766 mmHg 91%
22:00 +15°C° 0 mm 0 m/s 765 mmHg 91%
23:00 +15°C° 0 mm 0 m/s 765 mmHg 90%
Voir plus

Nous avons besoin de votre consentement

Meteoprog et ses fournisseurs de services peuvent stocker et accéder à des données personnelles telles que des cookies, des identifiants d'appareils ou d'autres technologies similaires sur votre appareil et traiter ces données pour personnaliser le contenu et les publicités, ainsi que pour fournir des fonctionnalités de médias sociaux et analyser le trafic.

  • Stocker et/ou accéder à des informations sur votre appareil

    Des cookies, des identifiants d'appareils ou d'autres informations peuvent être stockés ou accessibles sur votre appareil aux fins indiquées ci-dessus.

  • Annonces et contenus personnalisés, mesure des annonces et des contenus, connaissance de l'audience et développement de produits

    Les annonces et le contenu peuvent être personnalisés en fonction d'un profil. D'autres données peuvent être ajoutées pour mieux personnaliser les annonces et le contenu. Les performances des publicités et du contenu peuvent être mesurées. Il est possible d'obtenir des informations sur le public qui a vu les publicités et le contenu. Ces données peuvent être utilisées pour développer ou améliorer l'expérience de l'utilisateur, les systèmes et les logiciels.

En cliquant sur "J'accepte", vous autorisez l'utilisation de cookies, des identifiants d'appareils, des balises web ou d'autres technologies similaires. Vos paramètres peuvent être modifiés dans le navigateur de votre appareil.

Dans certains cas, des intérêts légitimes peuvent être invoqués plutôt qu'un consentement. Vous pouvez en savoir plus à ce sujet dans notre Politique de confidentialité et de cookies.